Location: Kolin
(50.0330°N, 15.2000°E)
Time: 07:12:46
(UTC+02:00)

Gurwin Techsat 1B - Pass Details

Date: 15 August 2022
Orbit: 811 x 814 km, 98.8° (Epoch: 25 September)

Event Time Altitude Azimuth Distance (km) Brightness Sun altitude
Rises 03:25:02 0° 18° (NNE) 3,351 13.2 -18.8°
Reaches altitude 10° 03:27:27 10° 22° (NNE) 2,415 12.2 -18.5°
Maximum altitude 03:32:42 57° 101° (ESE) 953 9.1 -18.0°
Enters shadow 03:36:24 19° 175° (S) 1,828 10.0 -17.7°
